When you browse on this site, cookies collect data to enhance your experience and personalize the content and advertising you see.
Visit our Privacy Policy to learn more. By continuing to use the site, you agree to this use of cookies and data.
  • In Austria
  • List of Countries
  • For 7 days
  • Water Temperature
  • Weather Map
  • News
  • Weather Widgets
  • user-avatar
    Login

    Hourly Weather Altmunster

    Today, 20 February, Thursday

    Time Temperature Precipitation Wind Pressure Humidity
    00:00 0°C° 0.1 mm 3 mps 727 mmHg 88%
    01:00 0°C° 0.1 mm 3 mps 727 mmHg 88%
    02:00 -1°C° 0.1 mm 2 mps 727 mmHg 88%
    03:00 -1°C° 0.1 mm 2 mps 727 mmHg 88%
    04:00 -1°C° 0.1 mm 2 mps 727 mmHg 88%
    05:00 -1°C° 0 mm 2 mps 727 mmHg 88%
    06:00 -1°C° 0 mm 2 mps 727 mmHg 89%
    07:00 -1°C° 0 mm 2 mps 727 mmHg 90%
    08:00 +1°C° 0.1 mm 2 mps 727 mmHg 88%
    09:00 +2°C° 0.1 mm 2 mps 727 mmHg 86%
    10:00 +3°C° 0.1 mm 2 mps 727 mmHg 84%
    11:00 +4°C° 0.1 mm 2 mps 726 mmHg 82%
    12:00 +5°C° 0.1 mm 2 mps 726 mmHg 80%
    13:00 +6°C° 0.1 mm 2 mps 725 mmHg 78%
    14:00 +7°C° 0 mm 1 mps 725 mmHg 78%
    15:00 +7°C° 0 mm 1 mps 725 mmHg 78%
    16:00 +7°C° 0 mm 0 mps 724 mmHg 78%
    17:00 +6°C° 0 mm 1 mps 724 mmHg 80%
    18:00 +5°C° 0 mm 1 mps 724 mmHg 83%
    19:00 +4°C° 0 mm 1 mps 724 mmHg 86%
    20:00 +4°C° 0 mm 1 mps 724 mmHg 85%
    21:00 +3°C° 0 mm 1 mps 724 mmHg 84%
    22:00 +2°C° 0 mm 2 mps 723 mmHg 83%
    23:00 +2°C° 0 mm 2 mps 724 mmHg 81%

    Tomorrow, 21 February, Friday

    Time Temperature Precipitation Wind Pressure Humidity
    00:00 +3°C° 0 mm 2 mps 724 mmHg 78%
    01:00 +3°C° 0 mm 2 mps 724 mmHg 76%
    02:00 +2°C° 0.1 mm 3 mps 724 mmHg 79%
    03:00 +3°C° 0.1 mm 3 mps 724 mmHg 83%
    04:00 +3°C° 0.1 mm 4 mps 724 mmHg 87%
    05:00 +3°C° 1 mm 4 mps 724 mmHg 87%
    06:00 +2°C° 1 mm 5 mps 725 mmHg 88%
    07:00 +1°C° 1 mm 5 mps 726 mmHg 88%
    14:00 +3°C° 0 mm 4 mps 729 mmHg 71%
    15:00 +3°C° 0 mm 4 mps 729 mmHg 70%
    16:00 +3°C° 0 mm 3 mps 729 mmHg 69%
    17:00 +2°C° 0 mm 3 mps 729 mmHg 73%
    18:00 +2°C° 0 mm 2 mps 730 mmHg 77%
    19:00 +2°C° 0 mm 2 mps 730 mmHg 81%
    20:00 +2°C° 0 mm 1 mps 730 mmHg 81%
    21:00 +2°C° 0 mm 1 mps 730 mmHg 82%
    22:00 +2°C° 0 mm 1 mps 730 mmHg 82%
    23:00 +2°C° 0 mm 1 mps 731 mmHg 82%

    Day after tomorrow, 22 February, Saturday

    Time Temperature Precipitation Wind Pressure Humidity
    00:00 +2°C° 0 mm 1 mps 731 mmHg 82%
    01:00 +2°C° 0 mm 1 mps 731 mmHg 82%
    02:00 +3°C° 0 mm 1 mps 730 mmHg 81%
    03:00 +2°C° 0 mm 2 mps 730 mmHg 81%
    04:00 +2°C° 0 mm 2 mps 730 mmHg 80%
    05:00 +2°C° 0 mm 2 mps 730 mmHg 79%
    06:00 +1°C° 0 mm 2 mps 730 mmHg 77%
    07:00 +1°C° 0 mm 2 mps 730 mmHg 76%
    08:00 +4°C° 0 mm 1 mps 730 mmHg 72%
    09:00 +5°C° 0 mm 1 mps 730 mmHg 69%
    10:00 +7°C° 0 mm 1 mps 729 mmHg 66%
    11:00 +8°C° 0 mm 1 mps 729 mmHg 62%
    12:00 +10°C° 0 mm 1 mps 729 mmHg 58%
    13:00 +11°C° 0 mm 1 mps 729 mmHg 55%
    14:00 +11°C° 0 mm 1 mps 728 mmHg 59%
    15:00 +11°C° 0 mm 1 mps 728 mmHg 62%
    16:00 +11°C° 0 mm 1 mps 727 mmHg 66%
    17:00 +9°C° 0 mm 2 mps 728 mmHg 65%
    18:00 +8°C° 0 mm 2 mps 728 mmHg 65%
    19:00 +7°C° 0 mm 2 mps 728 mmHg 64%
    20:00 +7°C° 0 mm 2 mps 728 mmHg 63%
    21:00 +6°C° 0 mm 2 mps 728 mmHg 62%
    22:00 +5°C° 0 mm 3 mps 728 mmHg 61%
    23:00 +5°C° 0 mm 3 mps 728 mmHg 61%

    23 February, Sunday

    Time Temperature Precipitation Wind Pressure Humidity
    00:00 +5°C° 0 mm 3 mps 728 mmHg 61%
    01:00 +6°C° 0 mm 2 mps 728 mmHg 61%
    02:00 +5°C° 0 mm 3 mps 728 mmHg 62%
    03:00 +5°C° 0 mm 3 mps 728 mmHg 62%
    04:00 +5°C° 0 mm 3 mps 727 mmHg 62%
    05:00 +5°C° 0 mm 3 mps 727 mmHg 63%
    06:00 +5°C° 0 mm 3 mps 727 mmHg 63%
    07:00 +5°C° 0 mm 3 mps 727 mmHg 63%
    08:00 +6°C° 0 mm 2 mps 727 mmHg 64%
    09:00 +7°C° 0 mm 2 mps 727 mmHg 66%
    10:00 +8°C° 0 mm 2 mps 727 mmHg 67%
    11:00 +9°C° 0.1 mm 2 mps 726 mmHg 65%
    12:00 +10°C° 0.1 mm 3 mps 726 mmHg 63%
    13:00 +11°C° 0.1 mm 3 mps 725 mmHg 61%
    14:00 +12°C° 0.1 mm 2 mps 724 mmHg 65%
    15:00 +10°C° 0.1 mm 2 mps 723 mmHg 69%
    16:00 +11°C° 0.1 mm 1 mps 722 mmHg 74%
    17:00 +10°C° 0.2 mm 2 mps 722 mmHg 74%
    18:00 +9°C° 0.2 mm 2 mps 721 mmHg 74%
    19:00 +9°C° 0.2 mm 3 mps 721 mmHg 74%
    20:00 +8°C° 0.7 mm 4 mps 721 mmHg 77%
    21:00 +8°C° 0.7 mm 5 mps 721 mmHg 80%
    22:00 +8°C° 0.7 mm 7 mps 721 mmHg 84%
    23:00 +8°C° 0.8 mm 7 mps 721 mmHg 85%

    24 February, Monday

    Time Temperature Precipitation Wind Pressure Humidity
    00:00 +8°C° 0.8 mm 7 mps 722 mmHg 86%
    01:00 +8°C° 0.8 mm 7 mps 723 mmHg 88%
    02:00 +5°C° 1.6 mm 7 mps 724 mmHg 88%
    03:00 +4°C° 1.6 mm 6 mps 725 mmHg 89%
    04:00 +3°C° 1.6 mm 6 mps 726 mmHg 89%
    05:00 +2°C° 1 mm 5 mps 727 mmHg 88%
    06:00 +1°C° 1 mm 5 mps 728 mmHg 87%
    07:00 +1°C° 1 mm 4 mps 729 mmHg 87%
    08:00 +1°C° 0.1 mm 4 mps 729 mmHg 82%
    09:00 +3°C° 0.1 mm 4 mps 729 mmHg 77%
    10:00 +3°C° 0.1 mm 3 mps 730 mmHg 72%
    11:00 +4°C° 0 mm 3 mps 730 mmHg 69%
    12:00 +5°C° 0 mm 3 mps 729 mmHg 67%
    13:00 +7°C° 0 mm 3 mps 729 mmHg 64%
    14:00 +7°C° 0 mm 2 mps 729 mmHg 67%
    15:00 +7°C° 0 mm 2 mps 728 mmHg 69%
    16:00 +7°C° 0 mm 2 mps 728 mmHg 71%
    17:00 +7°C° 0 mm 1 mps 728 mmHg 75%
    18:00 +7°C° 0 mm 1 mps 727 mmHg 78%
    19:00 +6°C° 0 mm 1 mps 727 mmHg 82%
    20:00 +6°C° 0 mm 1 mps 727 mmHg 82%
    21:00 +5°C° 0 mm 1 mps 726 mmHg 82%
    22:00 +5°C° 0 mm 1 mps 726 mmHg 83%
    23:00 +5°C° 0 mm 1 mps 726 mmHg 81%

    25 February, Tuesday

    Time Temperature Precipitation Wind Pressure Humidity
    00:00 +5°C° 0 mm 1 mps 725 mmHg 80%
    01:00 +5°C° 0 mm 1 mps 724 mmHg 79%
    02:00 +5°C° 0 mm 1 mps 724 mmHg 78%
    03:00 +5°C° 0 mm 1 mps 723 mmHg 76%
    04:00 +5°C° 0 mm 1 mps 723 mmHg 75%
    05:00 +5°C° 0 mm 1 mps 723 mmHg 74%
    06:00 +5°C° 0 mm 1 mps 722 mmHg 73%
    07:00 +5°C° 0 mm 1 mps 722 mmHg 73%
    08:00 +7°C° 0 mm 1 mps 722 mmHg 73%
    09:00 +8°C° 0 mm 1 mps 721 mmHg 72%
    10:00 +10°C° 0 mm 1 mps 721 mmHg 72%
    11:00 +10°C° 0 mm 2 mps 720 mmHg 71%
    12:00 +13°C° 0 mm 2 mps 720 mmHg 69%
    13:00 +14°C° 0 mm 2 mps 719 mmHg 67%
    14:00 +14°C° 0 mm 2 mps 718 mmHg 70%
    15:00 +14°C° 0 mm 1 mps 718 mmHg 73%
    16:00 +14°C° 0 mm 1 mps 717 mmHg 75%
    17:00 +12°C° 0 mm 1 mps 717 mmHg 77%
    18:00 +11°C° 0 mm 1 mps 717 mmHg 79%
    19:00 +9°C° 0 mm 2 mps 717 mmHg 81%
    20:00 +9°C° 0 mm 2 mps 717 mmHg 81%
    21:00 +9°C° 0 mm 2 mps 717 mmHg 80%
    22:00 +8°C° 0 mm 2 mps 717 mmHg 80%
    23:00 +8°C° 0.2 mm 2 mps 716 mmHg 82%
    Show more